Location: Brahman Valley
(40.6513°N, 111.8855°W)
Time: 09:40:37
(UTC+00:00)

Tiros 1 despin weight - Pass Details

Date: 19 May 2021
Orbit: 594 x 641 km, 48.2° (Epoch: 22 June)

Event Time Altitude Azimuth Distance (km) Brightness Sun altitude
Rises 23:40:22 0° 201° (SSW) 2,870 ? 32.3°
Reaches altitude 10° 23:43:02 10° 186° (S) 1,978 ? 31.8°
Maximum altitude 23:46:35 23° 135° (SE) 1,348 ? 31.1°
Drops below altitude 10° 23:50:10 10° 84° (E) 2,009 ? 30.4°
Sets 23:52:54 0° 69° (ENE) 2,928 ? 29.9°
